Stündliche Wetter Cislitsa-Prut

Heute, 11 Mai, Dienstag

Zeit Temperatur Niederschläge Wind Luftdruck Luftfeuchtigkeit
00:00 +10°C° 0 mm 2 m/S 762 mmHg 52%
01:00 +9°C° 0 mm 2 m/S 762 mmHg 53%
02:00 +9°C° 0 mm 2 m/S 761 mmHg 54%
03:00 +8°C° 0 mm 2 m/S 761 mmHg 56%
04:00 +8°C° 0 mm 2 m/S 761 mmHg 57%
05:00 +9°C° 0 mm 1 m/S 761 mmHg 59%
06:00 +11°C° 0 mm 1 m/S 761 mmHg 53%
07:00 +13°C° 0 mm 1 m/S 761 mmHg 48%
08:00 +14°C° 0 mm 1 m/S 761 mmHg 42%
09:00 +16°C° 0 mm 1 m/S 761 mmHg 40%
10:00 +19°C° 0 mm 1 m/S 761 mmHg 37%
11:00 +21°C° 0 mm 1 m/S 760 mmHg 35%
12:00 +21°C° 0 mm 1 m/S 760 mmHg 34%
13:00 +22°C° 0 mm 1 m/S 759 mmHg 33%
14:00 +23°C° 0 mm 1 m/S 759 mmHg 31%
15:00 +23°C° 0 mm 1 m/S 758 mmHg 32%
16:00 +23°C° 0 mm 1 m/S 758 mmHg 32%
17:00 +23°C° 0 mm 1 m/S 757 mmHg 32%
18:00 +22°C° 0 mm 1 m/S 757 mmHg 37%
19:00 +20°C° 0 mm 1 m/S 757 mmHg 42%
20:00 +19°C° 0 mm 1 m/S 757 mmHg 46%
21:00 +18°C° 0 mm 1 m/S 757 mmHg 49%
22:00 +18°C° 0 mm 1 m/S 756 mmHg 51%
23:00 +16°C° 0 mm 1 m/S 756 mmHg 54%

Morgen, 12 Mai, Mittwoch

Zeit Temperatur Niederschläge Wind Luftdruck Luftfeuchtigkeit
00:00 +16°C° 0 mm 1 m/S 756 mmHg 56%
01:00 +16°C° 0 mm 1 m/S 755 mmHg 58%
02:00 +16°C° 0 mm 1 m/S 755 mmHg 61%
03:00 +15°C° 0 mm 1 m/S 755 mmHg 64%
04:00 +15°C° 0 mm 1 m/S 755 mmHg 67%
05:00 +15°C° 0 mm 1 m/S 754 mmHg 70%
06:00 +16°C° 0 mm 2 m/S 754 mmHg 71%
07:00 +16°C° 0 mm 2 m/S 754 mmHg 71%
08:00 +17°C° 0 mm 3 m/S 754 mmHg 72%
09:00 +17°C° 0.2 mm 4 m/S 754 mmHg 73%
10:00 +18°C° 0.2 mm 4 m/S 754 mmHg 73%
11:00 +17°C° 0.2 mm 5 m/S 754 mmHg 74%
12:00 +17°C° 0.2 mm 5 m/S 754 mmHg 73%
13:00 +16°C° 0.2 mm 5 m/S 754 mmHg 73%
14:00 +16°C° 0.2 mm 6 m/S 754 mmHg 73%
15:00 +16°C° 0 mm 6 m/S 754 mmHg 74%
16:00 +15°C° 0 mm 6 m/S 753 mmHg 75%
17:00 +15°C° 0 mm 6 m/S 753 mmHg 75%
18:00 +14°C° 0 mm 5 m/S 753 mmHg 77%
19:00 +14°C° 0 mm 5 m/S 753 mmHg 79%
20:00 +13°C° 0 mm 5 m/S 753 mmHg 80%
21:00 +13°C° 0 mm 5 m/S 753 mmHg 82%
22:00 +12°C° 0 mm 4 m/S 753 mmHg 83%
23:00 +12°C° 0 mm 4 m/S 753 mmHg 84%

übermorgen, 13 Mai, Donnerstag

Zeit Temperatur Niederschläge Wind Luftdruck Luftfeuchtigkeit
00:00 +12°C° 0 mm 4 m/S 753 mmHg 85%
01:00 +12°C° 0 mm 3 m/S 753 mmHg 86%
02:00 +12°C° 0 mm 3 m/S 753 mmHg 87%
03:00 +11°C° 0 mm 3 m/S 752 mmHg 89%
04:00 +11°C° 0 mm 3 m/S 752 mmHg 91%
05:00 +11°C° 0 mm 3 m/S 752 mmHg 93%
06:00 +12°C° 0.5 mm 3 m/S 752 mmHg 91%
07:00 +12°C° 0.5 mm 3 m/S 752 mmHg 90%
08:00 +13°C° 0.5 mm 3 m/S 752 mmHg 89%
09:00 +13°C° 0.3 mm 3 m/S 752 mmHg 87%
10:00 +14°C° 0.3 mm 4 m/S 752 mmHg 84%
11:00 +15°C° 0.3 mm 4 m/S 752 mmHg 81%
12:00 +15°C° 0.1 mm 4 m/S 752 mmHg 76%
13:00 +17°C° 0.1 mm 4 m/S 751 mmHg 71%
14:00 +16°C° 0.1 mm 5 m/S 751 mmHg 65%
15:00 +18°C° 0 mm 4 m/S 751 mmHg 63%
16:00 +19°C° 0 mm 4 m/S 751 mmHg 61%
17:00 +19°C° 0 mm 4 m/S 750 mmHg 58%
18:00 +18°C° 0 mm 4 m/S 750 mmHg 64%
19:00 +15°C° 0 mm 4 m/S 750 mmHg 70%
20:00 +14°C° 0 mm 3 m/S 750 mmHg 76%
21:00 +13°C° 0 mm 3 m/S 750 mmHg 79%
22:00 +13°C° 0 mm 3 m/S 750 mmHg 81%
23:00 +13°C° 0 mm 2 m/S 750 mmHg 84%

14 Mai, Freitag

Zeit Temperatur Niederschläge Wind Luftdruck Luftfeuchtigkeit
00:00 +13°C° 0.5 mm 2 m/S 750 mmHg 87%
01:00 +13°C° 0.5 mm 2 m/S 750 mmHg 90%
02:00 +13°C° 0.5 mm 2 m/S 750 mmHg 93%
03:00 +13°C° 1.9 mm 2 m/S 750 mmHg 94%
04:00 +13°C° 1.9 mm 2 m/S 750 mmHg 95%
05:00 +13°C° 1.9 mm 1 m/S 750 mmHg 96%
06:00 +14°C° 0 mm 2 m/S 751 mmHg 91%
07:00 +14°C° 0 mm 3 m/S 751 mmHg 85%
08:00 +16°C° 0 mm 3 m/S 751 mmHg 80%
09:00 +18°C° 0 mm 4 m/S 751 mmHg 73%
10:00 +19°C° 0 mm 4 m/S 751 mmHg 65%
11:00 +21°C° 0 mm 5 m/S 751 mmHg 58%
12:00 +22°C° 0 mm 5 m/S 751 mmHg 54%
13:00 +22°C° 0 mm 5 m/S 751 mmHg 50%
14:00 +23°C° 0 mm 5 m/S 751 mmHg 47%
15:00 +23°C° 0 mm 4 m/S 751 mmHg 48%
16:00 +23°C° 0 mm 4 m/S 751 mmHg 50%
17:00 +22°C° 0 mm 4 m/S 752 mmHg 51%
18:00 +21°C° 0 mm 4 m/S 752 mmHg 56%
19:00 +19°C° 0 mm 3 m/S 752 mmHg 61%
20:00 +18°C° 0 mm 3 m/S 752 mmHg 66%
21:00 +17°C° 0 mm 3 m/S 752 mmHg 69%
22:00 +16°C° 0 mm 3 m/S 753 mmHg 72%
23:00 +16°C° 0 mm 3 m/S 753 mmHg 76%

15 Mai, Samstag

Zeit Temperatur Niederschläge Wind Luftdruck Luftfeuchtigkeit
00:00 +14°C° 0 mm 3 m/S 753 mmHg 77%
01:00 +14°C° 0 mm 2 m/S 753 mmHg 78%
02:00 +14°C° 0 mm 2 m/S 753 mmHg 79%
03:00 +14°C° 0 mm 2 m/S 753 mmHg 80%
04:00 +13°C° 0 mm 2 m/S 753 mmHg 81%
05:00 +13°C° 0 mm 2 m/S 754 mmHg 83%
06:00 +14°C° 0 mm 3 m/S 754 mmHg 77%
07:00 +16°C° 0 mm 3 m/S 754 mmHg 71%
08:00 +18°C° 0 mm 3 m/S 754 mmHg 65%
09:00 +19°C° 0 mm 3 m/S 754 mmHg 59%
10:00 +21°C° 0 mm 4 m/S 754 mmHg 54%
11:00 +22°C° 0 mm 4 m/S 754 mmHg 49%
12:00 +23°C° 0 mm 4 m/S 754 mmHg 46%
13:00 +25°C° 0 mm 4 m/S 753 mmHg 42%
14:00 +25°C° 0 mm 4 m/S 753 mmHg 39%
15:00 +25°C° 0 mm 4 m/S 753 mmHg 40%
16:00 +26°C° 0 mm 4 m/S 752 mmHg 41%
17:00 +26°C° 0 mm 4 m/S 752 mmHg 41%
18:00 +22°C° 0 mm 4 m/S 752 mmHg 50%
19:00 +20°C° 0 mm 4 m/S 752 mmHg 59%
20:00 +18°C° 0 mm 4 m/S 752 mmHg 68%
21:00 +18°C° 0.1 mm 3 m/S 752 mmHg 71%
22:00 +17°C° 0.1 mm 3 m/S 752 mmHg 73%
23:00 +16°C° 0.1 mm 2 m/S 752 mmHg 76%

16 Mai, Sonntag

Zeit Temperatur Niederschläge Wind Luftdruck Luftfeuchtigkeit
00:00 +16°C° 0 mm 2 m/S 751 mmHg 77%
01:00 +16°C° 0 mm 2 m/S 751 mmHg 79%
02:00 +16°C° 0 mm 2 m/S 751 mmHg 81%
03:00 +16°C° 0 mm 2 m/S 751 mmHg 82%
04:00 +16°C° 0 mm 3 m/S 751 mmHg 83%
05:00 +15°C° 0 mm 4 m/S 750 mmHg 85%
06:00 +17°C° 0 mm 4 m/S 751 mmHg 80%
07:00 +18°C° 0 mm 4 m/S 751 mmHg 74%
08:00 +19°C° 0 mm 4 m/S 751 mmHg 69%
09:00 +20°C° 0 mm 3 m/S 751 mmHg 63%
10:00 +22°C° 0 mm 3 m/S 750 mmHg 57%
11:00 +24°C° 0 mm 2 m/S 750 mmHg 51%
12:00 +24°C° 0 mm 3 m/S 750 mmHg 51%
13:00 +23°C° 0 mm 4 m/S 750 mmHg 51%
14:00 +23°C° 0 mm 4 m/S 749 mmHg 51%
15:00 +22°C° 0.1 mm 4 m/S 749 mmHg 54%
16:00 +22°C° 0.1 mm 4 m/S 749 mmHg 56%
17:00 +21°C° 0.1 mm 3 m/S 749 mmHg 59%
18:00 +20°C° 0.1 mm 3 m/S 749 mmHg 64%
19:00 +19°C° 0.1 mm 2 m/S 749 mmHg 68%
20:00 +18°C° 0.1 mm 2 m/S 749 mmHg 73%
21:00 +18°C° 0.4 mm 2 m/S 749 mmHg 78%
22:00 +17°C° 0.4 mm 3 m/S 749 mmHg 82%
23:00 +17°C° 0.4 mm 3 m/S 748 mmHg 87%
Mehr zeigen

Wir brauchen deine Erlaubnis

Meteoprog und unser Service Anbieter werden persönliche Daten aufbewahren, so wie Cookies, Geräte Bezeichnung oder ähnliche Technologien von deinem Gerät und Prozess, so wie Persönliche Daten Inhalte und Werbungen, genauso wie social Media und den Verkehr zu analysieren.

  • Aufbewahrung und/oder Zugang zu deiner Geräte Informationen.

    Cookies, Geräte Bezeichnung oder andere Informationen, können aufbewahrt oder Zugang zu deinem Gerät erhalten, für den Grund, der oben angegeben wird.

  • Personalisierte Werbung und Inhalte, Messungen, Einblick in das Publikum und Produkt Entwicklung.

    Werbungen und Inhalte können personalisiert werden, basierend auf ein Profil. Mehr Daten können besser personalisierte Werbungen und Inhalte hinzufügen. Werbung und Inhalte können gezeigt und gemessen werden. Einblicke über das Publikum, welche die Werbung gesehen haben und den Inhalt, können abgeleitet werden. So wie Daten können genutzt werden, um es zu verbessern oder die Benutzer Erfahrung zu verbessern das System und die Software.

Wenn du “Ich stimme zu” klickst, erlaubst du uns, die Cookies zu benutzen die Geräte Bezeichnung, den Web oder ähnliche Technologien zu benutzen. Deine Settings, können in deinem Gerät bei deinem Browser geändert werden.

Für den bestimmten Zweck, berechtigten Interessen beruhen darauf, mehr als auf den Inhalt. Du kannst mehr darüber in unseren Privaten und Cookie Politik lesen.